EW4427 Weather Reports


time (UTC)temp
C
wind
direction
speed
KPH
gust
KPH
rain 1hr
cm
rain 24hr
cm
rain mn
cm
humidity
%
barometer
mb
20260901014607 26 186 3.2 6.4 0.00 0.00 0.00 86 1013.2
20260901014043 26 186 3.2 6.4 0.00 0.00 0.00 86 1013.1
20260901013549 26 186 1.6 6.4 0.00 0.00 0.00 86 1013.0
20260901013105 26 186 3.2 8.0 0.00 0.00 0.00 86 1013.0
20260901012542 26 186 4.8 8.0 0.00 0.00 0.00 86 1013.0
20260901012046 26 186 4.8 8.0 0.00 0.00 0.00 85 1012.9
20260901011601 26 186 4.8 8.0 0.00 0.00 0.00 85 1012.9
20260901011046 26 186 6.4 8.0 0.00 0.00 0.00 85 1013.0
20260901010545 26 188 4.8 8.0 0.00 0.00 0.00 85 1012.8
20260901010109 26 190 3.2 4.8 0.00 0.00 0.00 84 1012.8
20260901005546 26 189 0.0 8.0 0.00 0.00 0.00 84 1012.9
20260901005050 26 189 3.2 9.7 0.00 0.00 0.00 84 1012.8
20260901004611 26 188 6.4 9.7 0.00 0.00 0.00 84 1012.8
20260901004046 26 182 3.2 6.4 0.00 0.00 0.00 84 1012.6
20260901003545 26 0 0.0 0.0 0.00 0.00 0.00 82 1012.8
20260901003103 27 0 0.0 0.0 0.00 0.00 0.00 82 1012.9
20260901002543 27 0 0.0 3.2 0.00 0.00 0.00 82 1012.9
20260901002048 27 0 0.0 3.2 0.00 0.00 0.00 82 1012.7
20260901001600 27 0 0.0 1.6 0.00 0.00 0.00 81 1012.6
20260901001046 27 0 0.0 1.6 0.00 0.00 0.00 80 1012.6
20260901000546 27 0 0.0 1.6 0.00 0.00 0.00 80 1012.5
20260901000113 27 0 0.0 1.6 0.00 0.00 0.00 80 1012.6
20260831235543 27 0 0.0 0.0 0.00 0.00 0.00 80 1012.4
20260831235043 27 0 0.0 1.6 0.00 0.00 0.00 80 1012.5
20260831234606 27 0 0.0 4.8 0.00 0.00 0.00 80 1012.4
20260831234046 27 0 0.0 4.8 0.00 0.00 0.00 80 1012.3
20260831233544 27 188 1.6 4.8 0.00 0.00 0.00 80 1012.2
20260831233100 27 185 3.2 6.4 0.00 0.00 0.00 80 1012.2
20260831232547 27 199 3.2 6.4 0.00 0.00 0.00 79 1012.3
20260831232047 27 182 1.6 8.0 0.00 0.00 0.00 79 1012.4
20260831231558 27 196 3.2 8.0 0.00 0.00 0.00 79 1012.3
20260831231049 27 186 3.2 6.4 0.00 0.00 0.00 79 1012.2
20260831230547 27 186 3.2 6.4 0.00 0.00 0.00 78 1012.2
20260831230106 27 188 1.6 6.4 0.00 0.00 0.00 78 1012.4
20260831225545 27 187 1.6 8.0 0.00 0.00 0.00 78 1012.4
20260831225046 27 192 3.2 8.0 0.00 0.00 0.00 78 1012.3
20260831224601 27 174 3.2 11.3 0.00 0.00 0.00 78 1012.1
20260831224043 27 192 3.2 12.9 0.00 0.00 0.00 78 1012.1
20260831223544 27 185 4.8 12.9 0.00 0.00 0.00 77 1011.9
20260831223100 27 189 3.2 9.7 0.00 0.00 0.00 77 1012.0
20260831222544 27 196 4.8 11.3 0.00 0.00 0.00 77 1012.0
20260831222043 27 223 1.6 11.3 0.00 0.00 0.00 78 1012.0
20260831221606 27 194 1.6 9.7 0.00 0.00 0.00 78 1012.1
20260831221047 27 195 3.2 11.3 0.00 0.00 0.00 78 1012.2
20260831220543 27 200 3.2 11.3 0.00 0.00 0.00 79 1012.1
20260831220104 27 190 3.2 20.9 0.00 0.00 0.00 79 1012.1
20260831215544 27 184 4.8 20.9 0.00 0.00 0.00 79 1012.2
20260831215045 27 179 6.4 16.1 0.00 0.00 0.00 79 1012.1
20260831214601 27 179 6.4 16.1 0.00 0.00 0.00 80 1012.2
20260831214044 27 190 8.0 17.7 0.00 0.00 0.00 80 1012.3
20260831213543 27 194 8.0 17.7 0.00 0.00 0.00 79 1012.3
20260831213059 27 181 4.8 12.9 0.00 0.00 0.00 79 1012.3
20260831212543 27 184 3.2 9.7 0.00 0.00 0.00 78 1012.4
20260831212043 27 182 3.2 8.0 0.00 0.00 0.00 79 1012.5
20260831211603 27 180 1.6 6.4 0.00 0.00 0.00 79 1012.6
20260831211042 27 0 1.6 4.8 0.00 0.00 0.00 80 1012.4
20260831210542 27 193 1.6 3.2 0.00 0.00 0.00 79 1012.3
20260831210104 27 192 0.0 1.6 0.00 0.00 0.00 79 1012.0
20260831205542 27 0 0.0 0.0 0.00 0.00 0.00 78 1011.8
20260831205043 27 0 0.0 0.0 0.00 0.00 0.00 77 1011.5
20260831204558 27 0 0.0 0.0 0.00 0.00 0.00 77 1011.5
20260831204043 27 0 0.0 1.6 0.00 0.00 0.00 77 1011.3
20260831203542 27 0 0.0 6.4 0.00 0.00 0.00 77 1011.3
20260831203111 27 192 0.0 6.4 0.00 0.00 0.00 77 1011.3
20260831202544 27 192 3.2 6.4 0.00 0.00 0.00 76 1011.6
20260831202047 27 180 1.6 6.4 0.00 0.00 0.00 75 1011.8
20260831201600 27 0 1.6 6.4 0.00 0.00 0.00 75 1011.9
20260831201044 27 175 0.0 6.4 0.00 0.00 0.00 75 1012.1
20260831200543 27 185 0.0 8.0 0.00 0.00 0.00 74 1012.3
20260831200059 27 0 1.6 8.0 0.00 0.00 0.00 74 1012.1
20260831195544 28 209 3.2 8.0 0.00 0.00 0.00 73 1011.9
20260831195045 28 192 3.2 8.0 0.00 0.00 0.00 72 1011.9
20260831194635 28 195 3.2 6.4 0.00 0.00 0.00 71 1012.0
20260831194048 28 182 3.2 8.0 0.00 0.00 0.00 70 1011.9
20260831193544 28 180 3.2 9.7 0.00 0.00 0.00 69 1012.0
20260831193100 28 196 3.2 9.7 0.00 0.00 0.00 69 1012.0
20260831192545 29 173 4.8 9.7 0.00 0.00 0.00 68 1012.0
20260831192045 29 175 4.8 9.7 0.00 0.00 0.00 68 1012.1
20260831191559 29 194 3.2 9.7 0.00 0.00 0.00 67 1012.1
20260831191047 30 201 4.8 11.3 0.00 0.00 0.00 65 1012.1
20260831190545 30 184 4.8 11.3 0.00 0.00 0.00 66 1012.1
20260831190114 30 171 6.4 12.9 0.00 0.00 0.00 68 1012.0
20260831185547 30 173 6.4 12.9 0.00 0.00 0.00 67 1012.1
20260831185045 29 194 4.8 12.9 0.00 0.00 0.00 67 1012.0
20260831184609 29 185 4.8 14.5 0.00 0.00 0.00 69 1012.1
20260831184044 28 167 6.4 14.5 0.00 0.00 0.00 71 1012.2
20260831183546 28 185 6.4 11.3 0.00 0.00 0.00 72 1012.2
20260831183107 28 196 6.4 11.3 0.00 0.00 0.00 73 1012.2
20260831182546 28 192 6.4 11.3 0.00 0.00 0.00 73 1012.2
20260831182049 27 185 3.2 11.3 0.00 0.00 0.00 72 1012.3
20260831181603 27 180 6.4 11.3 0.00 0.00 0.00 73 1012.3
20260831181045 27 192 6.4 12.9 0.00 0.00 0.00 74 1012.4
20260831180545 27 168 6.4 12.9 0.00 0.00 0.00 74 1012.3
20260831180100 27 178 4.8 12.9 0.00 0.00 0.00 75 1012.3
20260831175547 27 183 4.8 14.5 0.00 0.00 0.00 75 1012.4
20260831175046 27 188 8.0 14.5 0.00 0.00 0.00 75 1012.4
20260831174602 27 187 6.4 17.7 0.00 0.00 0.00 75 1012.4
20260831174046 27 201 6.4 17.7 0.00 0.00 0.00 74 1012.5
20260831173546 27 190 9.7 16.1 0.00 0.00 0.00 73 1012.5
20260831173101 27 192 6.4 19.3 0.00 0.00 0.00 73 1012.7
20260831172545 27 187 6.4 19.3 0.00 0.00 0.00 75 1012.7
20260831172045 26 192 11.3 19.3 0.00 0.00 0.00 74 1012.7
20260831171606 26 234 11.3 19.3 0.00 0.00 0.00 73 1012.6
20260831171045 26 183 6.4 20.9 0.00 0.00 0.00 74 1012.7
20260831170545 26 184 12.9 22.5 0.00 0.00 0.00 73 1012.9
20260831170107 26 181 11.3 22.5 0.00 0.00 0.00 74 1012.8
20260831165544 26 181 11.3 20.9 0.00 0.00 0.00 74 1012.9
20260831165045 26 182 9.7 22.5 0.00 0.00 0.00 74 1012.8
20260831164609 26 192 8.0 24.1 0.00 0.00 0.00 75 1012.8
20260831164045 26 190 12.9 24.1 0.00 0.00 0.00 77 1012.8
20260831163545 26 180 12.9 20.9 0.00 0.00 0.00 77 1012.9
20260831163102 26 182 9.7 20.9 0.00 0.00 0.00 78 1012.9
20260831162546 26 187 11.3 20.9 0.00 0.00 0.00 77 1013.0
20260831162046 25 184 9.7 19.3 0.00 0.00 0.00 77 1013.1
20260831161601 25 178 9.7 22.5 0.00 0.00 0.00 78 1013.1
20260831161045 25 189 11.3 22.5 0.00 0.00 0.00 79 1013.1
20260831160547 25 186 12.9 20.9 0.00 0.00 0.00 79 1013.0
20260831160110 25 194 11.3 20.9 0.00 0.00 0.00 78 1013.1
20260831155546 25 188 9.7 24.1 0.00 0.00 0.00 79 1012.9
20260831155049 25 182 11.3 25.7 0.00 0.00 0.00 80 1013.1
20260831154706 25 186 14.5 25.7 0.00 0.00 0.00 80 1013.0
20260831154045 24 201 16.1 22.5 0.00 0.00 0.00 80 1013.0
20260831153549 24 184 14.5 20.9 0.00 0.00 0.00 81 1013.1
20260831153100 24 189 9.7 19.3 0.00 0.00 0.00 81 1013.2
20260831152545 24 184 9.7 24.1 0.00 0.00 0.00 81 1013.3
20260831152046 23 186 9.7 24.1 0.00 0.00 0.00 81 1013.2
20260831151603 23 179 9.7 19.3 0.00 0.00 0.00 81 1013.1
20260831151047 23 182 11.3 19.3 0.00 0.00 0.00 81 1013.1
20260831150549 23 182 11.3 20.9 0.00 0.00 0.00 81 1013.2
20260831145546 23 196 12.9 19.3 0.00 0.00 0.00 81 1013.3
20260831145045 23 190 11.3 19.3 0.00 0.00 0.00 81 1013.2
20260831144558 23 178 11.3 19.3 0.00 0.00 0.00 82 1013.1
20260831144045 23 191 8.0 19.3 0.00 0.00 0.00 82 1013.2
20260831143545 23 186 8.0 19.3 0.00 0.00 0.00 82 1013.3
20260831143114 23 195 9.7 16.1 0.00 0.00 0.00 82 1013.3
20260831142546 23 188 8.0 17.7 0.00 0.00 0.00 82 1013.3
20260831142045 23 192 11.3 17.7 0.00 0.00 0.00 82 1013.3
20260831141615 23 202 11.3 17.7 0.00 0.00 0.00 82 1013.2
20260831141044 23 189 9.7 17.7 0.00 0.00 0.00 82 1013.1
20260831140545 23 209 9.7 17.7 0.00 0.00 0.00 82 1013.3
20260831140058 23 181 9.7 16.1 0.00 0.00 0.00 82 1013.1
20260831135545 23 190 8.0 17.7 0.00 0.03 0.00 83 1013.2
20260831135045 22 199 8.0 19.3 0.00 0.03 0.00 83 1013.1
20260831134609 22 188 8.0 19.3 0.00 0.03 0.00 83 1013.2
20260831134044 22 179 11.3 19.3 0.00 0.03 0.00 83 1013.1
20260831133545 22 193 6.4 16.1 0.00 0.03 0.00 84 1013.1
20260831133104 22 186 9.7 16.1 0.00 0.03 0.00 84 1013.1
20260831132547 22 185 9.7 17.7 0.00 0.03 0.00 84 1013.0
20260831132045 22 182 11.3 17.7 0.00 0.03 0.00 85 1012.9
20260831131612 22 195 11.3 17.7 0.00 0.03 0.00 86 1013.0
20260831131044 22 198 11.3 16.1 0.00 0.03 0.00 86 1012.8
20260831130544 22 202 11.3 20.9 0.00 0.03 0.00 87 1012.9
20260831130101 22 194 11.3 20.9 0.00 0.03 0.00 88 1012.8
20260831125545 21 194 11.3 16.1 0.00 0.03 0.00 87 1013.0
20260831125045 21 198 9.7 17.7 0.00 0.03 0.00 88 1013.0
20260831124611 21 182 11.3 17.7 0.00 0.03 0.00 88 1013.1
20260831124044 21 190 11.3 17.7 0.00 0.03 0.00 89 1013.1
20260831123544 21 207 11.3 16.1 0.00 0.03 0.00 90 1013.2
20260831123101 21 178 9.7 16.1 0.00 0.03 0.00 90 1013.2
20260831122546 21 196 9.7 16.1 0.00 0.03 0.00 91 1013.1
20260831122045 21 192 9.7 14.5 0.00 0.03 0.00 91 1013.1
20260831121605 21 180 8.0 14.5 0.00 0.03 0.00 92 1013.1
20260831121045 21 195 8.0 14.5 0.00 0.03 0.00 92 1013.1
20260831120545 21 188 8.0 12.9 0.00 0.03 0.00 92 1013.1
20260831120106 21 198 6.4 14.5 0.00 0.03 0.00 92 1013.1
20260831115545 21 189 8.0 14.5 0.00 0.03 0.00 93 1013.1
20260831115044 21 190 8.0 14.5 0.00 0.03 0.00 93 1013.1
20260831114600 21 205 8.0 14.5 0.00 0.03 0.00 93 1013.2
20260831114047 21 196 8.0 12.9 0.00 0.03 0.00 93 1013.3
20260831113545 21 187 8.0 12.9 0.00 0.03 0.00 94 1013.3
20260831113118 21 185 8.0 12.9 0.00 0.03 0.00 94 1013.2
20260831112545 21 180 8.0 12.9 0.00 0.03 0.00 94 1013.1
20260831112044 21 0 0.0 0.0 0.00 0.03 0.00 94 1013.1
20260831111602 21 0 0.0 0.0 0.00 0.03 0.00 94 1013.3
20260831111044 21 0 0.0 0.0 0.00 0.03 0.00 94 1013.3
20260831110544 21 0 0.0 0.0 0.00 0.03 0.00 94 1013.3
20260831110101 21 0 0.0 0.0 0.00 0.03 0.00 94 1013.4
20260831105545 21 0 0.0 0.0 0.00 0.03 0.00 94 1013.5
20260831105045 21 0 0.0 0.0 0.00 0.03 0.00 94 1013.7
20260831104604 21 0 0.0 0.0 0.00 0.03 0.00 94 1013.7
20260831104044 21 0 0.0 0.0 0.00 0.03 0.00 94 1013.7
20260831103544 21 0 0.0 0.0 0.00 0.03 0.00 94 1013.9
20260831103101 21 0 0.0 0.0 0.00 0.03 0.00 94 1013.6
20260831102547 21 0 0.0 0.0 0.00 0.03 0.00 94 1013.9
20260831102044 21 0 0.0 0.0 0.00 0.03 0.00 94 1013.8
20260831101615 21 0 0.0 0.0 0.00 0.03 0.00 94 1013.7
20260831101044 21 0 0.0 0.0 0.00 0.03 0.00 93 1013.6
20260831100543 21 0 0.0 0.0 0.00 0.03 0.00 93 1013.4
20260831100111 21 0 0.0 0.0 0.00 0.03 0.00 93 1013.6
20260831095545 20 0 0.0 0.0 0.00 0.03 0.00 93 1013.6
20260831095044 20 0 0.0 0.0 0.00 0.03 0.00 93 1013.7
20260831094601 20 0 0.0 0.0 0.00 0.03 0.00 93 1013.4
20260831094045 20 0 0.0 0.0 0.00 0.03 0.00 93 1013.3
20260831093547 20 0 0.0 0.0 0.00 0.03 0.00 92 1013.1
20260831093102 20 0 0.0 0.0 0.00 0.03 0.00 92 1013.1
20260831092544 20 0 0.0 0.0 0.00 0.03 0.00 92 1013.1
20260831092046 20 0 0.0 0.0 0.00 0.03 0.00 92 1013.0
20260831091602 20 0 0.0 0.0 0.00 0.03 0.00 92 1013.1
20260831091045 20 0 0.0 0.0 0.00 0.03 0.00 92 1013.2
20260831090544 20 0 0.0 0.0 0.00 0.03 0.00 92 1013.3
20260831090109 21 0 0.0 0.0 0.00 0.03 0.00 92 1013.3
20260831085545 21 0 0.0 0.0 0.00 0.03 0.00 92 1013.3
20260831085044 21 0 0.0 0.0 0.00 0.03 0.00 92 1013.3
20260831084600 21 0 0.0 0.0 0.00 0.03 0.00 92 1013.4
20260831084044 21 0 0.0 0.0 0.00 0.03 0.00 92 1013.4
20260831083543 21 0 0.0 0.0 0.00 0.03 0.00 92 1013.3
20260831083110 21 0 0.0 0.0 0.00 0.03 0.00 92 1013.4
20260831082544 21 0 0.0 0.0 0.00 0.03 0.00 92 1013.3
20260831082044 21 0 0.0 0.0 0.00 0.03 0.00 92 1013.3
20260831081601 21 0 0.0 0.0 0.00 0.03 0.00 92 1013.3
20260831081042 21 0 0.0 0.0 0.00 0.03 0.00 92 1013.4
20260831080544 21 0 0.0 0.0 0.00 0.03 0.00 92 1013.4
20260831080110 21 0 0.0 0.0 0.00 0.03 0.00 92 1013.4
20260831075541 21 0 0.0 0.0 0.00 0.03 0.00 92 1013.5
20260831075047 21 0 0.0 0.0 0.00 0.03 0.00 92 1013.5
20260831074602 21 0 0.0 0.0 0.00 0.03 0.00 92 1013.6
20260831074044 21 0 0.0 0.0 0.00 0.03 0.00 92 1013.7
20260831073543 21 0 0.0 0.0 0.00 0.03 0.00 91 1013.7
20260831073102 21 0 0.0 0.0 0.00 0.03 0.00 91 1013.7
20260831072544 21 0 0.0 0.0 0.00 0.03 0.00 91 1013.8
20260831072043 21 0 0.0 0.0 0.00 0.03 0.00 91 1014.0
20260831071603 21 0 0.0 0.0 0.00 0.03 0.00 91 1014.1
20260831071043 21 0 0.0 0.0 0.00 0.03 0.00 91 1014.1
20260831070544 21 0 0.0 0.0 0.00 0.03 0.00 91 1014.2
20260831070101 21 0 0.0 0.0 0.00 0.03 0.00 91 1014.2
20260831065546 21 0 0.0 0.0 0.00 0.03 0.00 91 1014.4
20260831065045 21 0 0.0 0.0 0.00 0.03 0.00 91 1014.3
20260831064604 21 0 0.0 0.0 0.00 0.03 0.00 91 1014.3
20260831064047 21 0 0.0 0.0 0.00 0.03 0.00 91 1014.4
20260831063547 21 0 0.0 0.0 0.00 0.03 0.00 91 1014.5
20260831063103 21 0 0.0 0.0 0.00 0.03 0.00 91 1014.4
20260831062546 21 0 0.0 0.0 0.00 0.03 0.00 91 1014.4
20260831062046 21 0 0.0 0.0 0.00 0.03 0.00 91 1014.5
20260831061607 21 0 0.0 0.0 0.00 0.03 0.00 91 1014.5
20260831061045 21 0 0.0 0.0 0.00 0.03 0.00 91 1014.5
20260831060545 21 0 0.0 0.0 0.00 0.03 0.00 90 1014.5
20260831060109 21 0 0.0 0.0 0.00 0.03 0.00 90 1014.4
20260831055546 21 0 0.0 0.0 0.00 0.03 0.00 90 1014.5
20260831055046 21 0 0.0 0.0 0.00 0.03 0.00 90 1014.4
20260831054604 21 0 0.0 0.0 0.00 0.03 0.00 90 1014.3
20260831054046 22 0 0.0 0.0 0.00 0.03 0.00 90 1014.4
20260831053547 22 0 0.0 0.0 0.00 0.03 0.00 90 1014.3
20260831053101 22 0 0.0 0.0 0.00 0.03 0.00 90 1014.4
20260831052547 22 0 0.0 0.0 0.00 0.03 0.00 89 1014.4
20260831052046 22 0 0.0 0.0 0.00 0.03 0.00 89 1014.3
20260831051613 22 0 0.0 0.0 0.00 0.03 0.00 89 1014.4
20260831051045 22 0 0.0 0.0 0.00 0.03 0.00 89 1014.2
20260831050544 22 0 0.0 0.0 0.00 0.03 0.00 89 1014.3
20260831050106 22 0 0.0 0.0 0.00 0.03 0.00 89 1014.2
20260831045545 22 0 0.0 0.0 0.00 0.03 0.03 89 1014.3
20260831045047 22 0 0.0 0.0 0.00 0.03 0.03 90 1014.1
20260831044601 22 0 0.0 0.0 0.00 0.03 0.03 90 1014.1
20260831044046 22 0 0.0 0.0 0.00 0.03 0.03 90 1014.1
20260831043545 22 0 0.0 8.0 0.00 0.03 0.03 90 1014.2
20260831043059 22 0 0.0 11.3 0.00 0.03 0.03 90 1014.1
20260831042547 22 185 4.8 12.9 0.00 0.03 0.03 90 1014.0
20260831042046 22 204 8.0 12.9 0.00 0.03 0.03 90 1013.8
20260831041621 22 184 4.8 11.3 0.00 0.03 0.03 90 1013.8
20260831041048 22 198 4.8 14.5 0.00 0.03 0.03 90 1013.9
20260831040547 22 190 6.4 14.5 0.00 0.03 0.03 90 1013.9
20260831040104 22 187 8.0 14.5 0.00 0.03 0.03 90 1013.8
20260831035545 22 188 6.4 14.5 0.00 0.03 0.03 90 1014.0
20260831035044 22 191 4.8 17.7 0.00 0.03 0.03 90 1014.0
20260831034601 22 191 11.3 17.7 0.00 0.03 0.03 90 1013.7
20260831034045 22 193 11.3 16.1 0.00 0.03 0.03 90 1013.8
20260831033544 22 190 11.3 16.1 0.00 0.03 0.03 90 1013.7
20260831033102 22 185 9.7 16.1 0.00 0.03 0.03 91 1013.4
20260831032546 22 178 9.7 12.9 0.00 0.03 0.03 91 1013.9
20260831032048 22 186 8.0 12.9 0.00 0.03 0.03 91 1014.3
20260831031601 22 181 6.4 11.3 0.00 0.03 0.03 90 1014.3
20260831031043 22 186 0.0 1.6 0.00 0.03 0.03 89 1014.5
20260831030545 22 0 0.0 1.6 0.00 0.03 0.03 89 1014.8
20260831030114 22 0 0.0 4.8 0.00 0.03 0.03 90 1014.7
20260831025544 22 0 0.0 8.0 0.00 0.03 0.03 90 1015.0
20260831025044 22 186 3.2 12.9 0.00 0.03 0.03 90 1014.7
20260831024638 22 196 4.8 12.9 0.00 0.03 0.03 90 1014.7
20260831024046 22 185 6.4 12.9 0.00 0.03 0.03 90 1014.4
20260831023546 22 190 3.2 14.5 0.00 0.03 0.03 89 1014.3
20260831023100 22 183 3.2 17.7 0.00 0.03 0.03 90 1014.5
20260831022543 22 179 6.4 17.7 0.00 0.03 0.03 90 1014.5
20260831022043 22 200 11.3 17.7 0.00 0.03 0.03 90 1014.0
20260831021604 22 184 9.7 17.7 0.00 0.03 0.03 90 1014.2
20260831021044 22 187 9.7 17.7 0.00 0.03 0.03 91 1014.2
20260831020546 22 194 6.4 11.3 0.00 0.03 0.03 91 1014.3
20260831020059 22 194 4.8 17.7 0.00 0.03 0.03 91 1014.4
20260831015545 22 188 8.0 17.7 0.00 0.03 0.03 91 1014.5
20260831015045 22 185 11.3 17.7 0.00 0.03 0.03 92 1014.0